FENGYUN 1C DEB, 35144

Orbit data source: Space-Track

FENGYUN 1C DEB, 35144 is space debris in SSO originally from a launch on Mon, 10 May 1999 UTC launched from the Taiyaun Space Center, China (TSC). Fengyun 1C debris stems from the Chinese weather satellite Fengyun-1C, which was intentionally destroyed by a Chinese anti-satellite missile in 2007. This event dramatically increased the amount of space debris, with thousands of trackable fragments posing hazards to satellites and human spaceflight. The Fengyun 1C debris cloud has become a focal point in discussions about space sustainability and the need for international regulations to prevent the creation of new debris.

Loading next visibility...
Identifier
35144, 1999-025DLY
Orbit
SSO
Country
Flag of CNCN / PRC
Related business
Manufacturer
Unknown
Mission
Spacecraft
Bus & Motor
Unknown
Mass
Unknown
Launch date (UTC)
1999-05-10 (27 years ago)
Launch vehicle
Unknown
Launch site
Taiyaun Space Center, China (TSC)
Object type
Payload
Rocket body
Debris
Shape & HBR
Unknown shape, 0.1 m
Radar Cross Section
Small (<0.1 m²)

Expand to show TLE details & history
Last TLE update: 23 hours ago

TLE from 23 hours ago
0 FENGYUN 1C DEB
1 35144U 99025DLY 26174.80589975  .00009555  00000-0  18074-2 0  9999
2 35144  98.7081 305.3332 0027014 131.5352 228.8172 14.64355805680347
Epoch: 2026-06-23T19:20Z
TLE epoch observation values (Epoch: 2026-06-23T19:20:29.738Z)
Latitude
-0.00004°
Longitude
103.23711°
Altitude
694.704 km
Speed
7.502 km/s
True Right ascension
20h 21m 19s
True Declination
0° 00' 00"
Sunlit
Object was in full shadow at epoch
Visualization orbit readout
Latitude
Unknown
Longitude
Unknown
Altitude
Unknown
Speed
Unknown
Apparent Right ascension
Unknown
Apparent Declination
Unknown
Sunlit
N/A
Visualization observer readout
Local Sidereal Time
05:13:41
Azimuth
Unknown
Elevation
Unknown
Doppler factor
Unknown
Orbital elements
Apogee altitude
695.301 km
Perigee altitude
657.187 km
Semi-major axis
7,054.381 km
Eccentricity
0.0027
Inclination
98.7081°
RAAN
305.3332°
Arg. of periapsis
131.5352°
True anomaly
228.58474°
Mean anomaly
228.8172°
Eccentric anomaly
228.70092°
Mean motion
3.66315 °/min
Orbital period
98.28 mins
BSTAR
0.0018074
Loading maneuver chart data...
Computing Atmospheric mass density...

Documentation

Showing up to 5 results
|